Change the Weather History Date:

Saturday, May 21, 2011

  Actual Average Record
Temperature  
Mean Temperature 71 °F 66 °F  
Max Temperature 79 °F 76 °F 95 °F (1956)
Min Temperature 62 °F 57 °F 40 °F (1967)
Degree Days  
Heating Degree Days 0 2  
Month to date heating degree days 141 79  
Since 1 July heating degree days 5123 4910  
Cooling Degree Days 6 3  
Month to date cooling degree days 59 40  
Year to date cooling degree days 84 58  
Growing Degree Days 20 (Base 50)    
Moisture  
Dew Point 61 °F    
Average Humidity 76    
Maximum Humidity 93    
Minimum Humidity 58    
Precipitation  
Precipitation 0.92 in 0.17 in 2.23 in (1949)
Month to date precipitation 3.86 3.75  
Year to date precipitation 10.87 13.06  
Sea Level Pressure  
Sea Level Pressure 29.71 in    
Wind  
Wind Speed 11 mph (South)    
Max Wind Speed 25 mph    
Max Gust Speed 36 mph    
Visibility 8 miles    
Events Rain , Thunderstorm    
T = Trace of Precipitation, MM = Missing Value Source: NWS Daily Summary

Daily Weather History Graph

Daily Weather History Graph

Search for Another Location

Airport or City:

Trip Planner

Search our weather history database for the weather conditions in past years. The results will help you decide how hot, cold, wet, or windy it might be!

Date:

Astronomy

May. 21, 2011 Rise Set
Actual Time 6:01 AM CDT 8:29 PM CDT
Civil Twilight 5:31 AM CDT 9:00 PM CDT
Nautical Twilight 4:53 AM CDT 9:38 PM CDT
Astronomical Twilight 4:11 AM CDT 10:20 PM CDT
Moon No Moon Rise 10:00 AM CDT (5/21)
Length of Visible Light 15h 28m
Length of Day
14h 27m
Waning Gibbous, 79% of the Moon is Illuminated
May 21
Waning Gibbous
May 24
Last Quarter
Jun 1
New
Jun 8
First Quarter
Jun 15
Full

Hourly Weather History & Observations

Time (CDT) Temp. Dew Point Humidity Pressure Visibility Wind Dir Wind Speed Gust Speed Precip Events Conditions
12:53 AM 68.0 °F 60.1 °F 76% 29.71 in 10.0 mi SSW 10.4 mph 19.6 mph N/A   Clear
1:53 AM 66.0 °F 60.1 °F 81% 29.71 in 10.0 mi SW 11.5 mph 21.9 mph N/A   Scattered Clouds
2:53 AM 66.0 °F 59.0 °F 78% 29.71 in 10.0 mi SSW 9.2 mph 19.6 mph N/A   Scattered Clouds
3:53 AM 64.0 °F 60.1 °F 87% 29.69 in 10.0 mi South 9.2 mph - N/A   Overcast
4:03 AM 64.4 °F 60.8 °F 88% 29.72 in 10.0 mi South 6.9 mph - N/A   Overcast
4:53 AM 64.0 °F 60.1 °F 87% 29.70 in 10.0 mi SSW 10.4 mph - N/A   Overcast
5:53 AM 64.0 °F 60.1 °F 87% 29.71 in 10.0 mi South 4.6 mph - N/A   Overcast
6:53 AM 64.0 °F 60.1 °F 87% 29.73 in 10.0 mi SSW 6.9 mph - N/A   Overcast
7:53 AM 63.0 °F 60.1 °F 90% 29.75 in 10.0 mi South 6.9 mph - N/A   Overcast
8:36 AM 64.4 °F 60.8 °F 88% 29.78 in 9.0 mi South 9.2 mph - N/A   Overcast
8:53 AM 64.0 °F 60.1 °F 87% 29.76 in 9.0 mi SSW 5.8 mph - N/A   Overcast
9:53 AM 66.0 °F 61.0 °F 84% 29.76 in 10.0 mi South 9.2 mph - N/A   Overcast
10:09 AM 68.0 °F 60.8 °F 78% 29.78 in 10.0 mi SSW 10.4 mph 18.4 mph N/A   Overcast
10:53 AM 71.1 °F 61.0 °F 70% 29.76 in 10.0 mi South 11.5 mph - N/A   Mostly Cloudy
11:53 AM 73.0 °F 61.0 °F 66% 29.75 in 10.0 mi South 12.7 mph - N/A   Mostly Cloudy
12:53 PM 75.0 °F 63.0 °F 66% 29.73 in 10.0 mi South 11.5 mph 23.0 mph N/A   Partly Cloudy
1:53 PM 77.0 °F 62.1 °F 60% 29.71 in 10.0 mi South 16.1 mph 25.3 mph N/A   Clear
2:53 PM 78.1 °F 63.0 °F 60% 29.70 in 10.0 mi South 18.4 mph 26.5 mph N/A   Partly Cloudy
3:53 PM 79.0 °F 62.1 °F 56% 29.68 in 10.0 mi South 18.4 mph - N/A   Clear
4:53 PM 79.0 °F 62.1 °F 56% 29.67 in 10.0 mi South 18.4 mph 25.3 mph N/A   Clear
5:53 PM 79.0 °F 63.0 °F 58% 29.64 in 10.0 mi South 21.9 mph 28.8 mph N/A   Clear
6:53 PM 77.0 °F 62.1 °F 60% 29.64 in 10.0 mi South 9.2 mph - N/A   Clear
7:53 PM 75.0 °F 63.0 °F 66% 29.63 in 10.0 mi South 12.7 mph - N/A   Clear
8:53 PM 73.9 °F 63.0 °F 68% 29.63 in 10.0 mi South 13.8 mph - N/A   Clear
9:53 PM 73.9 °F 64.0 °F 71% 29.67 in 10.0 mi South 16.1 mph 21.9 mph 0.00 in Rain Light Rain
10:18 PM 73.4 °F 57.2 °F 57% 29.73 in 6.0 mi WSW 23.0 mph 35.7 mph 0.01 in Rain , Thunderstorm Light Rain
10:53 PM 72.0 °F 66.0 °F 81% 29.68 in 9.0 mi South 3.5 mph - 0.03 in   Overcast
11:09 PM 71.6 °F 64.4 °F 78% 29.70 in 9.0 mi South 5.8 mph - N/A   Overcast
11:32 PM 71.6 °F 66.2 °F 83% 29.73 in 8.0 mi SSW 18.4 mph 31.1 mph N/A Thunderstorm Thunderstorm
11:39 PM 62.6 °F 59.0 °F 88% 29.75 in 1.8 mi West 15.0 mph 34.5 mph 0.18 in Rain , Thunderstorm Heavy Thunderstorms and Rain
11:47 PM 64.4 °F 59.0 °F 83% 29.75 in 1.2 mi WSW 8.1 mph 24.2 mph 0.33 in Rain , Thunderstorm Heavy Thunderstorms and Rain
11:51 PM 62.6 °F 60.8 °F 94% 29.75 in 2.0 mi SSE 11.5 mph 24.2 mph 0.34 in Rain , Thunderstorm Heavy Thunderstorms and Rain
11:53 PM 62.1 °F 60.1 °F 93% 29.72 in 2.0 mi SSE 10.4 mph 18.4 mph 0.34 in Rain , Thunderstorm Light Thunderstorms and Rain
11:56 PM 62.6 °F 60.8 °F 94% 29.75 in 3.0 mi Calm Calm - 0.00 in Rain , Thunderstorm Light Thunderstorms and Rain